User: anonymous   Login
Location: Allie Creek
(37.5926°N, 89.8526°W)
Time: 03:02:20
(UTC+00:00)
Language:

SL-08 R/B - Orbit

View from above orbital plane
View from above orbital plane
View from above satellite
View from above satellite

Ground track
Ground track

The orbit data is extracted from the following two-line orbital elements,

1 27819U 03023B   24062.41882701  .00000079  00000-0  66302-4 0  9997
2 27819  82.9513  13.2291 0047807  75.3315  44.2621 13.74373865 40285
Epoch (UTC): 02 March 2024 10:03:06
Eccentricity: 0.0047807
inclination: 82.9513°
perigee height: 949 km
apogee height: 1019 km
right ascension of ascending node: 13.2291°
argument of perigee: 75.3315°
revolutions per day: 13.74373865
mean anomaly at epoch: 44.2621°
orbit number at epoch: 4028

The dashed part of the orbit path shows where the satellite is in the earth's shadow,  

DLR